Weather in Syvdarma

Russia / Yamalo-Nenets Autonomous Okrug     65°16′11″N   77°44′35″E
temp.,
°C
wind,
m/s
gust,
m/s
humid.,
%
clouds,
%
prec.,
mm/h
press.,
hPa
HPBL,
m
27 february, sat
sat2723:00−27wsw239892 0.1 102327
02:00−27wsw229895 0.1 102219
05:00−27wsw129893 0.1 102319
08:00−28wnw119993 0.1 102319
11:00−26n119391 0.1 1023175
14:00−25n119094 0.0 1024231
17:00−30n1110074 0.0 102519
20:00−31e1210083 0.0 102519
28 february, sun
sun2823:00−33ese1110073 0.0 102619
02:00−33sse2310017 0.0 102619
05:00−33sse2210024 0.0 102719
08:00−33sse349727 0.0 102721
11:00−28sse459328 0.0 1027216
14:00−25sse459172 0.0 1028271
17:00−29sse449553 0.0 102823
20:00−30sse45977 0.0 102731
1 march, mon
mon123:00−30sse449811 0.0 102727
02:00−31s349921 0.0 102619
05:00−31s449917 0.0 102622
08:00−30s45970 0.0 102647
11:00−25s569424 0.0 1025231
14:00−23s579395 0.0 1023277
17:00−26s459598 0.0 102340
20:00−27s5694100 0.0 102273
2 march, tue
tue223:00−28s569487 0.0 102175
02:00−28s569473 0.0 102065
05:00−28s699455 0.0 102094
08:00−28s6119363 0.0 1019154
11:00−23s8119080 0.0 1019313
14:00−21s81187100 0.0 1019366
17:00−22s71387100 0.0 1018277
20:00−23s71387100 0.0 1018234
3 march, wed
wed323:00−24s8128799 0.0 1018245
02:00−25s71289100 0.0 1018213
05:00−26sse71193100 0.0 1018176
08:00−26s81294100 0.0 1017244
11:00−23s91391100 0.0 1017346
14:00−20s9138897 0.0 1017426
17:00−21sse8149398 0.0 1016291
20:00−22sse8159392 0.0 1016270